Pos First Name Last Name YOB Country Start
Num
Time Swim T1 Bike T2 Run
1 Bruno Perillo 2001 URU 11 00:32:48 00:06:14 00:00:21 00:17:06 00:00:21 00:08:46
2 Agustin Perillo 2001 URU 15 00:34:51 00:07:03 00:00:25 00:17:43 00:00:22 00:09:18
3 German Pizzani 2001 URU 9 00:35:19 00:07:03 00:00:22 00:17:45 00:00:30 00:09:40
4 Vicente Torrealba 2003 CHI 4 00:35:25 00:07:03 00:00:23 00:17:46 00:00:22 00:09:50
5 Facundo Sellanes 2002 URU 7 00:35:28 00:08:33 00:00:30 00:16:46 00:00:26 00:09:12
6 Ismael Sosa 2001 URU 19 00:35:51 00:07:51 00:00:26 00:16:55 00:00:30 00:10:09
7 Francisco Vittasse 2003 ARG 5 00:36:17 00:07:19 00:00:22 00:17:33 00:00:17 00:10:45
8 Jose Balmaceda 2003 CHI 3 00:36:33 00:07:12 00:00:23 00:18:19 00:00:36 00:10:03
9 Lucas Mallorca 2002 URU 10 00:36:58 00:08:33 00:00:28 00:17:00 00:00:26 00:10:31
10 Andi Bustos 2002 URU 1 00:37:32 00:07:29 00:00:29 00:18:04 00:00:39 00:10:50
11 Luis Ignacio Zurlo 2002 ARG 18 00:38:07 00:07:04 00:00:23 00:17:46 00:00:24 00:12:30
12 Arturo Salinas 2003 CHI 8 00:38:28 00:06:55 00:00:24 00:17:55 00:00:27 00:12:48
13 Juan Pablo Martínez 2003 URU 21 00:38:37 00:07:27 00:00:29 00:18:27 00:00:19 00:11:55
14 Mauro Gonzalez 2003 ARG 22 00:38:47 00:07:26 00:00:26 00:19:27 00:00:24 00:11:03
15 Lucas Silveira 2002 URU 17 00:39:42 00:07:31 00:00:28 00:19:30 00:00:35 00:11:38
16 Matias Gonzalez 2002 URU 2 00:39:50 00:08:44 00:00:31 00:18:29 00:00:27 00:11:38
17 Sebastian Uribe Arias 2003 CHI 16 00:40:02 00:07:28 00:00:26 00:18:30 00:00:32 00:13:06
18 Juan Andres Cawen Rivero 2003 URU 14 00:40:24 00:08:24 00:00:25 00:18:53 00:00:33 00:12:09
19 Juan Francisco Duarte Medina 2002 URU 12 00:40:48 00:07:20 00:00:27 00:18:37 00:00:42 00:13:42
20 Maximiliano Poletti 2001 URU 20 00:48:07 00:09:31 00:00:32 00:20:57 00:00:37 00:16:29
DNF Servando Zapata 2001 URU 6 DNF 00:08:23 00:00:39 00:00:00 00:00:00 00:00:00
Program notes:

Technical Delegate: Ricardo Neves/BRA. Head Referee: Carlos Fernando/ARG. Competition Jury: Ricardo Neves/BRA, Liber Garcia/URU, Ricardo Nuñez/PER.
Water Temperature: 22ºC Air temperature 21º C.
Wetsuits not allowed.
Distances: Swim 400 m (1 lap), Bike 5 km (1 lap), Run 1.6 km (1 lap).